QPF
0.00 0.00 0.00 0.01 0.02 0.01 0.00 0.01 0.01 0.02 0.03 0.02 0.01 0.01 0.00 0.01 0.01 0.01 0.02 0.04 0.03 0.02 0.04 0.05 0.03 0.03 0.03 0.01 0.01 0.01 0.01 0.02 0.03 0.03 0.03 0.03 0.02 0.02 0.02 0.02 0.02 0.02 0.03 0.03
0.00 0.00 0.00 0.00 0.01 0.01 0.00 0.01 0.01 0.01 0.02 0.02 0.02 0.01 0.01 0.01 0.01 0.02 0.04 0.04 0.05 0.05 0.05 0.06 0.04 0.04 0.05 0.03 0.02 0.01 0.01 0.02 0.02 0.02 0.02 0.03 0.02 0.02 0.02 0.02 0.02 0.02 0.02 0.02
0.01 0.00 0.00 0.00 0.00 0.00 0.00 0.00 0.01 0.01 0.02 0.01 0.01 0.02 0.01 0.01 0.02 0.02 0.04 0.03 0.03 0.05 0.07 0.10 0.08 0.04 0.03 0.02 0.02 0.01 0.01 0.01 0.02 0.03 0.05 0.05 0.04 0.02 0.02 0.03 0.03 0.03 0.02 0.02
0.00 0.00 0.00 0.00 0.00 0.00 0.00 0.00 0.00 0.01 0.02 0.02 0.01 0.02 0.02 0.01 0.02 0.03 0.03 0.03 0.02 0.04 0.06 0.08 0.06 0.03 0.02 0.01 0.01 0.01 0.01 0.01 0.02 0.03 0.04 0.04 0.04 0.04 0.03 0.04 0.04 0.04 0.04 0.04
0.01 0.00 0.00 0.00 0.00 0.00 0.00 0.00 0.00 0.00 0.01 0.01 0.01 0.02 0.03 0.01 0.01 0.04 0.08 0.07 0.04 0.04 0.05 0.05 0.03 0.02 0.01 0.01 0.01 0.01 0.01 0.02 0.03 0.04 0.04 0.04 0.04 0.04 0.04 0.04 0.04 0.04 0.04 0.04
0.00 0.00 0.00 0.00 0.00 0.00 0.00 0.00 0.00 0.01 0.01 0.01 0.01 0.01 0.03 0.03 0.02 0.04 0.10 0.09 0.04 0.03 0.02 0.02 0.02 0.01 0.01 0.01 0.02 0.02 0.02 0.03 0.03 0.04 0.03 0.03 0.03 0.04 0.03 0.03 0.03 0.04 0.05 0.05
0.00 0.00 0.00 0.01 0.00 0.00 0.00 0.01 0.01 0.01 0.01 0.00 0.00 0.01 0.02 0.02 0.02 0.03 0.05 0.04 0.02 0.01 0.01 0.01 0.01 0.01 0.01 0.01 0.02 0.02 0.02 0.01 0.02 0.02 0.02 0.02 0.03 0.03 0.02 0.02 0.02 0.03 0.04 0.04
0.01 0.00 0.00 0.01 0.01 0.01 0.01 0.01 0.01 0.01 0.01 0.00 0.01 0.01 0.02 0.05 0.05 0.02 0.02 0.02 0.02 0.01 0.00 0.00 0.00 0.01 0.01 0.01 0.02 0.03 0.02 0.01 0.01 0.02 0.02 0.02 0.02 0.02 0.03 0.02 0.02 0.03 0.03 0.03
0.03 0.02 0.00 0.00 0.01 0.01 0.01 0.01 0.01 0.01 0.01 0.01 0.01 0.01 0.02 0.02 0.02 0.01 0.01 0.01 0.01 0.01 0.01 0.00 0.01 0.01 0.01 0.01 0.01 0.01 0.02 0.02 0.02 0.02 0.02 0.03 0.03 0.03 0.03 0.02 0.03 0.03 0.03 0.03
0.02 0.01 0.00 0.00 0.00 0.01 0.01 0.01 0.01 0.01 0.01 0.02 0.02 0.02 0.02 0.02 0.01 0.01 0.01 0.01 0.01 0.01 0.01 0.01 0.01 0.01 0.01 0.01 0.02 0.03 0.05 0.05 0.04 0.03 0.03 0.04 0.05 0.04 0.04 0.04 0.05 0.04 0.03 0.03
0.01 0.01 0.01 0.00 0.00 0.01 0.01 0.01 0.01 0.01 0.02 0.02 0.02 0.03 0.03 0.03 0.03 0.02 0.02 0.01 0.01 0.01 0.01 0.02 0.03 0.02 0.03 0.03 0.03 0.04 0.06 0.06 0.05 0.05 0.04 0.04 0.05 0.05 0.06 0.07 0.07 0.06 0.06 0.05
0.01 0.01 0.01 0.01 0.01 0.01 0.01 0.01 0.01 0.01 0.01 0.02 0.03 0.04 0.05 0.05 0.03 0.02 0.01 0.01 0.02 0.02 0.01 0.01 0.04 0.05 0.04 0.04 0.04 0.04 0.05 0.06 0.05 0.06 0.05 0.05 0.05 0.06 0.07 0.07 0.07 0.07 0.07 0.05
0.00 0.01 0.01 0.01 0.01 0.01 0.01 0.01 0.01 0.01 0.02 0.03 0.03 0.05 0.02 0.03 0.03 0.02 0.01 0.01 0.02 0.02 0.02 0.02 0.03 0.05 0.04 0.04 0.04 0.04 0.04 0.05 0.06 0.09 0.06 0.06 0.06 0.05 0.07 0.07 0.08 0.08 0.07 0.06
0.00 0.00 0.01 0.01 0.01 0.01 0.01 0.01 0.02 0.03 0.03 0.03 0.03 0.02 0.02 0.02 0.02 0.02 0.02 0.02 0.03 0.04 0.03 0.03 0.03 0.05 0.05 0.04 0.04 0.04 0.04 0.05 0.06 0.05 0.05 0.06 0.06 0.05 0.05 0.06 0.06 0.07 0.07 0.06
0.01 0.00 0.00 0.00 0.00 0.00 0.00 0.01 0.02 0.03 0.02 0.03 0.01 0.01 0.02 0.01 0.02 0.02 0.02 0.02 0.02 0.03 0.02 0.02 0.03 0.03 0.05 0.04 0.04 0.04 0.05 0.05 0.05 0.05 0.05 0.05 0.05 0.04 0.04 0.05 0.05 0.05 0.04 0.05
0.01 0.01 0.00 0.00 0.00 0.01 0.01 0.01 0.01 0.01 0.01 0.02 0.01 0.02 0.02 0.02 0.03 0.03 0.02 0.02 0.03 0.03 0.03 0.03 0.03 0.05 0.05 0.02 0.02 0.03 0.07 0.06 0.04 0.03 0.04 0.04 0.04 0.04 0.04 0.04 0.04 0.04 0.03 0.03
0.01 0.01 0.01 0.01 0.00 0.01 0.02 0.02 0.01 0.01 0.01 0.01 0.01 0.02 0.03 0.02 0.02 0.02 0.03 0.03 0.04 0.04 0.03 0.02 0.04 0.06 0.03 0.02 0.02 0.03 0.05 0.05 0.05 0.05 0.05 0.05 0.04 0.04 0.04 0.04 0.04 0.04 0.04 0.04
0.01 0.01 0.01 0.01 0.01 0.02 0.02 0.02 0.02 0.02 0.02 0.02 0.02 0.02 0.02 0.01 0.02 0.03 0.03 0.02 0.02 0.02 0.02 0.02 0.03 0.03 0.03 0.02 0.02 0.03 0.04 0.05 0.05 0.05 0.05 0.04 0.03 0.03 0.03 0.02 0.03 0.03 0.03 0.03
0.01 0.02 0.03 0.04 0.04 0.02 0.03 0.03 0.04 0.05 0.04 0.03 0.04 0.04 0.03 0.03 0.03 0.03 0.02 0.01 0.01 0.01 0.02 0.02 0.02 0.02 0.02 0.03 0.03 0.03 0.04 0.05 0.05 0.03 0.03 0.02 0.02 0.02 0.03 0.02 0.03 0.03 0.02 0.02
0.02 0.02 0.05 0.09 0.10 0.06 0.05 0.04 0.05 0.09 0.07 0.08 0.05 0.03 0.04 0.03 0.03 0.02 0.01 0.01 0.01 0.02 0.02 0.02 0.02 0.02 0.02 0.02 0.03 0.03 0.04 0.05 0.05 0.03 0.03 0.02 0.02 0.01 0.01 0.01 0.01 0.01 0.01 0.01
0.03 0.03 0.04 0.08 0.13 0.10 0.06 0.04 0.05 0.11 0.10 0.09 0.06 0.05 0.04 0.03 0.02 0.02 0.01 0.01 0.02 0.02 0.02 0.02 0.02 0.02 0.02 0.02 0.03 0.04 0.05 0.04 0.03 0.02 0.02 0.01 0.01 0.01 0.01 0.00 0.00 0.01 0.01 0.01
0.05 0.05 0.05 0.07 0.10 0.09 0.06 0.06 0.07 0.08 0.08 0.07 0.06 0.06 0.05 0.04 0.03 0.03 0.02 0.02 0.02 0.03 0.03 0.03 0.03 0.02 0.02 0.02 0.03 0.03 0.04 0.03 0.02 0.01 0.01 0.01 0.01 0.00 0.00 0.00 0.00 0.01 0.01 0.01
0.07 0.07 0.08 0.09 0.08 0.07 0.05 0.05 0.05 0.05 0.05 0.05 0.03 0.03 0.03 0.03 0.04 0.04 0.04 0.03 0.03 0.03 0.05 0.04 0.05 0.04 0.02 0.01 0.01 0.02 0.02 0.03 0.03 0.02 0.01 0.01 0.00 0.00 0.00 0.00 0.00 0.01 0.01 0.02
0.05 0.05 0.08 0.13 0.11 0.07 0.05 0.05 0.05 0.05 0.04 0.04 0.04 0.05 0.04 0.02 0.02 0.02 0.02 0.03 0.03 0.03 0.05 0.04 0.05 0.04 0.02 0.01 0.01 0.02 0.01 0.01 0.02 0.02 0.01 0.01 0.01 0.00 0.00 0.00 0.01 0.01 0.02 0.02
0.07 0.06 0.07 0.10 0.08 0.07 0.07 0.07 0.07 0.06 0.05 0.04 0.04 0.05 0.05 0.03 0.02 0.02 0.01 0.01 0.02 0.03 0.04 0.04 0.03 0.02 0.02 0.01 0.01 0.01 0.01 0.01 0.01 0.01 0.01 0.00 0.00 0.00 0.00 0.01 0.00 0.01 0.01 0.02
0.07 0.08 0.07 0.07 0.07 0.08 0.10 0.09 0.06 0.05 0.06 0.05 0.05 0.04 0.05 0.04 0.01 0.02 0.02 0.02 0.02 0.03 0.04 0.04 0.02 0.02 0.02 0.01 0.01 0.01 0.01 0.01 0.01 0.01 0.01 0.01 0.01 0.01 0.01 0.00 0.00 0.00 0.01 0.01
MSLP
1012.09 1012.78 1013.35 1013.74 1013.95 1013.98 1013.84 1013.57 1013.19 1012.73 1012.21 1011.64 1011.06 1010.48 1009.94 1009.48 1009.13 1008.91 1008.83 1008.88 1009.06 1009.31 1009.62 1009.95 1010.28 1010.59 1010.89 1011.19 1011.51 1011.86 1012.26 1012.69 1013.14 1013.59 1014.00 1014.36 1014.64 1014.83 1014.94 1015.00 1015.03 1015.07 1015.15 1015.29
1011.82 1012.32 1012.70 1012.95 1013.10 1013.17 1013.17 1013.11 1012.98 1012.76 1012.43 1011.99 1011.45 1010.82 1010.16 1009.54 1009.01 1008.65 1008.47 1008.50 1008.71 1009.05 1009.46 1009.90 1010.31 1010.67 1010.98 1011.26 1011.55 1011.87 1012.26 1012.71 1013.21 1013.74 1014.23 1014.65 1014.96 1015.15 1015.21 1015.17 1015.09 1015.02 1014.99 1015.06
1011.27 1011.57 1011.78 1011.94 1012.07 1012.23 1012.42 1012.61 1012.78 1012.84 1012.76 1012.47 1011.98 1011.32 1010.53 1009.73 1009.02 1008.48 1008.19 1008.15 1008.37 1008.77 1009.28 1009.83 1010.33 1010.76 1011.10 1011.38 1011.64 1011.94 1012.31 1012.78 1013.32 1013.90 1014.46 1014.95 1015.30 1015.49 1015.53 1015.43 1015.27 1015.10 1014.98 1014.96
1010.48 1010.61 1010.69 1010.78 1010.95 1011.24 1011.66 1012.16 1012.65 1013.04 1013.21 1013.11 1012.69 1012.00 1011.09 1010.11 1009.19 1008.46 1008.01 1007.89 1008.08 1008.51 1009.10 1009.74 1010.34 1010.85 1011.23 1011.53 1011.78 1012.06 1012.41 1012.87 1013.42 1014.04 1014.65 1015.18 1015.58 1015.80 1015.83 1015.71 1015.50 1015.25 1015.06 1014.96
1009.54 1009.52 1009.50 1009.57 1009.82 1010.28 1010.95 1011.76 1012.60 1013.31 1013.75 1013.84 1013.51 1012.80 1011.79 1010.64 1009.52 1008.59 1007.97 1007.73 1007.86 1008.30 1008.95 1009.67 1010.36 1010.94 1011.38 1011.70 1011.95 1012.21 1012.53 1012.95 1013.49 1014.10 1014.73 1015.30 1015.74 1015.99 1016.05 1015.93 1015.70 1015.42 1015.17 1015.01
1008.52 1008.39 1008.31 1008.40 1008.74 1009.38 1010.29 1011.40 1012.55 1013.56 1014.27 1014.53 1014.30 1013.60 1012.52 1011.22 1009.93 1008.82 1008.04 1007.67 1007.74 1008.16 1008.83 1009.62 1010.39 1011.05 1011.55 1011.90 1012.15 1012.37 1012.65 1013.02 1013.50 1014.08 1014.69 1015.26 1015.72 1016.01 1016.10 1016.02 1015.80 1015.52 1015.24 1015.04
1007.49 1007.29 1007.18 1007.30 1007.73 1008.53 1009.66 1011.01 1012.42 1013.67 1014.59 1015.02 1014.89 1014.22 1013.11 1011.73 1010.32 1009.07 1008.16 1007.69 1007.68 1008.08 1008.77 1009.61 1010.44 1011.17 1011.73 1012.11 1012.36 1012.55 1012.76 1013.06 1013.46 1013.96 1014.52 1015.07 1015.53 1015.84 1015.98 1015.94 1015.76 1015.51 1015.23 1015.01
1006.48 1006.25 1006.14 1006.30 1006.81 1007.72 1008.99 1010.50 1012.07 1013.50 1014.57 1015.13 1015.10 1014.49 1013.41 1012.02 1010.56 1009.25 1008.27 1007.74 1007.68 1008.05 1008.75 1009.61 1010.50 1011.28 1011.89 1012.31 1012.56 1012.72 1012.86 1013.07 1013.37 1013.77 1014.24 1014.73 1015.17 1015.49 1015.67 1015.68 1015.57 1015.36 1015.11 1014.89
1005.52 1005.28 1005.20 1005.40 1005.96 1006.93 1008.25 1009.82 1011.46 1012.96 1014.11 1014.75 1014.82 1014.30 1013.30 1011.98 1010.57 1009.28 1008.31 1007.76 1007.69 1008.05 1008.74 1009.63 1010.54 1011.37 1012.02 1012.46 1012.72 1012.85 1012.94 1013.05 1013.24 1013.53 1013.90 1014.30 1014.70 1015.01 1015.21 1015.28 1015.22 1015.07 1014.88 1014.67
1004.60 1004.41 1004.38 1004.62 1005.20 1006.16 1007.45 1008.98 1010.57 1012.03 1013.18 1013.87 1014.02 1013.62 1012.75 1011.58 1010.31 1009.14 1008.24 1007.74 1007.69 1008.05 1008.74 1009.62 1010.55 1011.40 1012.07 1012.54 1012.80 1012.92 1012.96 1013.00 1013.09 1013.27 1013.53 1013.84 1014.17 1014.46 1014.67 1014.77 1014.77 1014.68 1014.54 1014.37
1003.72 1003.62 1003.67 1003.96 1004.55 1005.45 1006.63 1008.02 1009.47 1010.80 1011.87 1012.55 1012.75 1012.48 1011.81 1010.85 1009.79 1008.81 1008.07 1007.67 1007.67 1008.05 1008.72 1009.59 1010.49 1011.33 1012.02 1012.50 1012.78 1012.91 1012.92 1012.92 1012.94 1013.02 1013.18 1013.41 1013.66 1013.91 1014.10 1014.22 1014.26 1014.22 1014.12 1013.99
1002.86 1002.91 1003.09 1003.45 1004.03 1004.85 1005.88 1007.06 1008.28 1009.42 1010.35 1010.97 1011.21 1011.07 1010.60 1009.90 1009.11 1008.37 1007.83 1007.57 1007.64 1008.03 1008.68 1009.50 1010.37 1011.18 1011.85 1012.34 1012.65 1012.80 1012.83 1012.80 1012.79 1012.81 1012.90 1013.04 1013.21 1013.40 1013.56 1013.67 1013.72 1013.71 1013.64 1013.55
1002.05 1002.30 1002.65 1003.10 1003.69 1004.41 1005.26 1006.20 1007.15 1008.04 1008.79 1009.31 1009.57 1009.55 1009.29 1008.86 1008.36 1007.89 1007.57 1007.47 1007.62 1008.02 1008.62 1009.37 1010.17 1010.92 1011.57 1012.07 1012.41 1012.59 1012.66 1012.66 1012.65 1012.64 1012.67 1012.75 1012.85 1012.97 1013.07 1013.15 1013.19 1013.18 1013.12 1013.04
1001.32 1001.82 1002.35 1002.93 1003.53 1004.17 1004.84 1005.52 1006.19 1006.82 1007.35 1007.75 1008.00 1008.08 1008.02 1007.84 1007.62 1007.43 1007.33 1007.37 1007.59 1007.99 1008.55 1009.21 1009.91 1010.59 1011.20 1011.70 1012.07 1012.31 1012.44 1012.50 1012.51 1012.51 1012.51 1012.53 1012.57 1012.61 1012.65 1012.67 1012.66 1012.62 1012.56 1012.48
1000.73 1001.47 1002.20 1002.90 1003.54 1004.10 1004.60 1005.05 1005.45 1005.81 1006.13 1006.40 1006.62 1006.77 1006.87 1006.92 1006.96 1007.01 1007.11 1007.29 1007.57 1007.96 1008.45 1009.01 1009.61 1010.21 1010.77 1011.26 1011.66 1011.96 1012.17 1012.29 1012.36 1012.38 1012.38 1012.36 1012.33 1012.30 1012.26 1012.20 1012.13 1012.05 1011.95 1011.85
1000.31 1001.26 1002.18 1002.98 1003.65 1004.15 1004.51 1004.74 1004.90 1005.02 1005.14 1005.28 1005.45 1005.65 1005.88 1006.12 1006.37 1006.63 1006.90 1007.20 1007.53 1007.90 1008.32 1008.79 1009.29 1009.80 1010.31 1010.78 1011.21 1011.57 1011.85 1012.05 1012.17 1012.23 1012.23 1012.19 1012.10 1012.00 1011.87 1011.73 1011.59 1011.44 1011.30 1011.16
1000.11 1001.19 1002.22 1003.10 1003.78 1004.22 1004.45 1004.51 1004.46 1004.38 1004.33 1004.35 1004.48 1004.71 1005.03 1005.41 1005.83 1006.26 1006.67 1007.06 1007.43 1007.79 1008.16 1008.54 1008.95 1009.39 1009.84 1010.30 1010.74 1011.15 1011.49 1011.76 1011.94 1012.03 1012.04 1011.97 1011.84 1011.67 1011.47 1011.25 1011.03 1010.82 1010.62 1010.45
1000.11 1001.24 1002.30 1003.18 1003.82 1004.20 1004.32 1004.24 1004.04 1003.81 1003.63 1003.56 1003.64 1003.88 1004.27 1004.76 1005.30 1005.86 1006.38 1006.85 1007.26 1007.62 1007.96 1008.28 1008.62 1009.00 1009.40 1009.84 1010.28 1010.71 1011.10 1011.41 1011.63 1011.75 1011.77 1011.69 1011.52 1011.30 1011.03 1010.74 1010.46 1010.19 1009.95 1009.74
1000.29 1001.35 1002.34 1003.15 1003.72 1004.01 1004.03 1003.85 1003.55 1003.22 1002.96 1002.83 1002.89 1003.14 1003.57 1004.13 1004.77 1005.42 1006.03 1006.57 1007.03 1007.41 1007.73 1008.03 1008.33 1008.66 1009.02 1009.43 1009.87 1010.30 1010.70 1011.03 1011.27 1011.40 1011.42 1011.32 1011.13 1010.87 1010.56 1010.24 1009.91 1009.60 1009.33 1009.10
1000.59 1001.48 1002.31 1002.98 1003.42 1003.62 1003.56 1003.32 1002.96 1002.59 1002.30 1002.16 1002.22 1002.48 1002.95 1003.56 1004.26 1004.97 1005.66 1006.27 1006.77 1007.19 1007.53 1007.82 1008.10 1008.40 1008.74 1009.12 1009.52 1009.93 1010.32 1010.64 1010.87 1010.99 1011.00 1010.90 1010.69 1010.42 1010.09 1009.75 1009.40 1009.09 1008.80 1008.56
1000.93 1001.57 1002.18 1002.66 1002.96 1003.05 1002.94 1002.67 1002.31 1001.96 1001.69 1001.57 1001.65 1001.95 1002.44 1003.08 1003.83 1004.59 1005.33 1006.00 1006.56 1007.03 1007.40 1007.71 1008.00 1008.29 1008.60 1008.94 1009.29 1009.65 1009.99 1010.27 1010.46 1010.56 1010.55 1010.43 1010.23 1009.95 1009.64 1009.30 1008.97 1008.65 1008.38 1008.14
1001.22 1001.59 1001.95 1002.23 1002.39 1002.39 1002.26 1002.00 1001.70 1001.40 1001.20 1001.14 1001.27 1001.61 1002.12 1002.80 1003.57 1004.37 1005.15 1005.86 1006.48 1007.00 1007.42 1007.77 1008.07 1008.35 1008.63 1008.91 1009.21 1009.49 1009.75 1009.96 1010.09 1010.14 1010.10 1009.98 1009.78 1009.52 1009.22 1008.91 1008.60 1008.32 1008.06 1007.83
1001.39 1001.50 1001.63 1001.74 1001.78 1001.74 1001.62 1001.43 1001.21 1001.03 1000.93 1000.97 1001.17 1001.54 1002.09 1002.78 1003.56 1004.38 1005.19 1005.94 1006.61 1007.17 1007.64 1008.02 1008.34 1008.61 1008.85 1009.07 1009.28 1009.47 1009.63 1009.74 1009.80 1009.78 1009.70 1009.56 1009.36 1009.12 1008.85 1008.58 1008.31 1008.05 1007.82 1007.61
1001.40 1001.30 1001.26 1001.24 1001.23 1001.19 1001.13 1001.05 1000.97 1000.93 1000.96 1001.10 1001.39 1001.82 1002.39 1003.08 1003.86 1004.67 1005.49 1006.27 1006.97 1007.57 1008.08 1008.49 1008.81 1009.07 1009.26 1009.41 1009.53 1009.60 1009.64 1009.64 1009.59 1009.50 1009.37 1009.20 1008.99 1008.77 1008.53 1008.29 1008.05 1007.83 1007.62 1007.43
1001.21 1001.00 1000.86 1000.80 1000.79 1000.82 1000.86 1000.93 1001.01 1001.13 1001.31 1001.58 1001.94 1002.42 1003.01 1003.69 1004.45 1005.26 1006.06 1006.84 1007.55 1008.19 1008.72 1009.14 1009.46 1009.69 1009.83 1009.89 1009.90 1009.86 1009.77 1009.64 1009.49 1009.31 1009.11 1008.90 1008.68 1008.46 1008.24 1008.03 1007.82 1007.62 1007.42 1007.24
1000.86 1000.62 1000.48 1000.45 1000.52 1000.66 1000.85 1001.08 1001.34 1001.64 1001.97 1002.34 1002.79 1003.30 1003.90 1004.56 1005.29 1006.06 1006.84 1007.60 1008.31 1008.95 1009.48 1009.90 1010.21 1010.39 1010.47 1010.46 1010.36 1010.19 1009.97 1009.73 1009.46 1009.19 1008.93 1008.67 1008.42 1008.20 1007.98 1007.78 1007.58 1007.39 1007.21 1007.03
Thickness
5775 5757 5750 5760 5764 5763 5762 5757 5756 5771 5790 5781 5773 5775 5784 5791 5789 5786 5785 5784 5783 5782 5785 5785 5782 5779 5774 5770 5765 5761 5757 5754 5750 5745 5740 5736 5733 5732 5730 5730 5729 5727 5724 5722
5754 5750 5771 5777 5776 5769 5763 5754 5757 5770 5786 5779 5768 5770 5781 5787 5787 5788 5785 5782 5780 5778 5777 5779 5779 5776 5771 5767 5764 5759 5756 5753 5749 5745 5741 5736 5732 5729 5728 5726 5724 5723 5721 5719
5747 5765 5781 5774 5769 5765 5763 5757 5759 5762 5774 5774 5763 5755 5768 5781 5787 5788 5787 5784 5781 5780 5776 5775 5773 5772 5769 5765 5762 5759 5755 5752 5749 5744 5739 5733 5728 5724 5722 5720 5719 5718 5717 5716
5754 5773 5774 5768 5767 5767 5756 5776 5773 5768 5754 5744 5752 5727 5754 5766 5772 5776 5777 5778 5778 5779 5777 5773 5771 5768 5767 5766 5763 5758 5753 5749 5746 5742 5736 5729 5724 5719 5718 5717 5715 5714 5714 5712
5754 5769 5767 5764 5772 5775 5771 5783 5774 5767 5752 5741 5744 5727 5740 5759 5758 5765 5772 5776 5776 5775 5773 5769 5767 5766 5766 5764 5759 5754 5749 5744 5741 5738 5733 5727 5722 5719 5716 5714 5711 5710 5709 5708
5764 5778 5776 5776 5785 5785 5783 5773 5764 5752 5737 5720 5737 5727 5729 5745 5754 5762 5769 5773 5773 5771 5768 5766 5766 5764 5761 5758 5754 5750 5744 5740 5738 5734 5730 5725 5720 5716 5712 5710 5708 5706 5704 5703
5749 5764 5778 5784 5771 5775 5769 5742 5718 5714 5706 5714 5738 5729 5731 5756 5764 5765 5765 5768 5770 5768 5763 5760 5759 5757 5755 5752 5749 5746 5741 5736 5734 5730 5726 5722 5718 5714 5711 5709 5706 5703 5700 5698
5726 5734 5764 5775 5769 5760 5760 5743 5712 5701 5700 5711 5728 5723 5740 5762 5767 5768 5766 5764 5763 5759 5757 5756 5755 5753 5751 5749 5745 5742 5737 5733 5730 5726 5722 5719 5715 5712 5709 5707 5703 5700 5698 5696
5726 5733 5769 5779 5782 5771 5755 5745 5745 5722 5716 5704 5711 5728 5747 5759 5759 5759 5757 5755 5754 5753 5752 5751 5750 5748 5747 5745 5742 5740 5734 5729 5726 5722 5718 5715 5713 5709 5705 5703 5700 5697 5695 5693
5739 5731 5755 5773 5777 5774 5766 5755 5731 5716 5700 5694 5706 5715 5725 5741 5743 5747 5747 5746 5748 5749 5748 5747 5747 5745 5742 5741 5739 5735 5731 5725 5722 5718 5715 5712 5708 5705 5701 5698 5694 5692 5691 5689
5746 5728 5738 5752 5750 5749 5752 5747 5732 5715 5709 5694 5688 5707 5747 5745 5745 5743 5743 5744 5744 5744 5742 5742 5741 5739 5736 5733 5731 5727 5723 5718 5714 5712 5709 5706 5702 5699 5696 5692 5690 5688 5686 5683
5743 5724 5718 5736 5757 5766 5756 5746 5730 5710 5705 5702 5694 5708 5755 5751 5748 5745 5743 5744 5743 5742 5740 5738 5736 5734 5729 5726 5724 5720 5716 5713 5710 5707 5704 5701 5698 5694 5690 5687 5685 5683 5680 5678
5739 5717 5703 5712 5728 5744 5745 5746 5737 5722 5708 5698 5692 5710 5747 5746 5743 5741 5740 5740 5738 5736 5734 5732 5730 5727 5723 5721 5718 5715 5711 5707 5704 5701 5697 5694 5691 5688 5685 5683 5681 5678 5675 5673
5742 5715 5705 5700 5710 5726 5731 5738 5737 5721 5700 5700 5707 5717 5730 5734 5733 5733 5733 5733 5732 5730 5729 5726 5722 5720 5718 5715 5712 5710 5707 5704 5700 5696 5692 5688 5685 5683 5681 5678 5675 5673 5670 5668
5729 5711 5717 5720 5730 5733 5731 5733 5734 5726 5719 5709 5715 5720 5725 5730 5731 5730 5730 5728 5727 5724 5722 5719 5716 5713 5711 5708 5705 5704 5701 5699 5696 5690 5686 5683 5681 5678 5675 5672 5670 5667 5665 5663
5717 5708 5711 5713 5726 5726 5723 5729 5730 5728 5727 5722 5720 5718 5729 5730 5729 5726 5724 5723 5720 5719 5716 5714 5712 5708 5704 5701 5699 5697 5695 5693 5690 5685 5681 5678 5675 5672 5669 5667 5664 5662 5659 5657
5705 5700 5693 5692 5711 5711 5703 5718 5720 5718 5721 5719 5711 5715 5723 5719 5718 5717 5718 5717 5715 5714 5712 5708 5706 5703 5701 5698 5695 5692 5691 5688 5684 5680 5677 5674 5670 5667 5664 5662 5659 5656 5654 5652
5701 5693 5683 5682 5691 5680 5702 5723 5722 5713 5712 5715 5714 5715 5716 5715 5715 5714 5715 5712 5710 5709 5707 5705 5702 5698 5696 5694 5691 5689 5687 5683 5679 5674 5672 5669 5666 5662 5659 5656 5653 5651 5648 5646
5706 5693 5679 5672 5673 5683 5703 5713 5711 5704 5699 5708 5706 5706 5708 5709 5706 5702 5708 5707 5704 5703 5701 5699 5698 5694 5691 5689 5687 5683 5680 5676 5673 5670 5667 5664 5661 5657 5654 5650 5648 5646 5643 5640
5698 5693 5678 5670 5668 5668 5686 5707 5715 5705 5687 5701 5701 5699 5699 5698 5684 5688 5699 5699 5697 5696 5695 5693 5691 5688 5684 5683 5681 5677 5673 5670 5668 5666 5663 5661 5657 5653 5650 5646 5644 5641 5637 5634
5675 5674 5669 5665 5663 5671 5688 5701 5704 5679 5677 5693 5695 5693 5692 5688 5687 5690 5693 5692 5690 5689 5688 5687 5684 5681 5678 5677 5674 5671 5668 5665 5665 5663 5660 5657 5653 5649 5646 5643 5639 5635 5632 5628
5660 5659 5659 5657 5653 5660 5686 5688 5679 5676 5685 5688 5688 5687 5686 5685 5685 5684 5685 5683 5682 5680 5680 5678 5675 5673 5672 5670 5667 5664 5662 5662 5660 5657 5654 5651 5648 5645 5643 5638 5633 5629 5625 5621
5658 5659 5656 5655 5654 5667 5676 5677 5679 5680 5679 5681 5681 5682 5681 5678 5677 5677 5675 5675 5674 5673 5671 5669 5667 5665 5664 5663 5661 5658 5658 5657 5654 5650 5647 5645 5642 5639 5636 5632 5627 5623 5619 5614
5654 5660 5654 5649 5655 5661 5667 5672 5674 5675 5675 5677 5677 5677 5676 5672 5671 5669 5667 5665 5665 5664 5662 5660 5658 5656 5655 5656 5655 5653 5652 5650 5647 5643 5641 5638 5635 5632 5630 5626 5622 5618 5614 5610
5642 5647 5643 5642 5648 5653 5658 5662 5664 5667 5669 5669 5669 5669 5666 5665 5662 5661 5659 5657 5657 5655 5653 5652 5649 5648 5648 5648 5647 5647 5646 5643 5639 5636 5634 5631 5629 5625 5623 5620 5616 5614 5611 5608
5635 5634 5634 5634 5642 5640 5643 5651 5656 5656 5657 5658 5658 5657 5656 5656 5654 5653 5651 5649 5648 5646 5645 5643 5642 5641 5640 5639 5639 5639 5639 5637 5633 5629 5626 5624 5622 5619 5617 5613 5610 5609 5607 5604